| time (UTC) | temp F | wind direction | speed MPH | gust MPH | rain 1hr in | rain 24hr in | rain mn in | humidity % | barometer mb |
| 20260505003031 | 64 | 64 | 0.0 | 0.0 | 0.00 | 0.00 | 0.00 | 70 | 1007.6 |
| 20260505001536 | 64 | 64 | 0.0 | 0.0 | 0.00 | 0.00 | 0.00 | 70 | 1007.5 |
| 20260505000036 | 65 | 64 | 0.0 | 0.0 | 0.00 | 0.00 | 0.00 | 68 | 1007.5 |
| 20260504234530 | 65 | 64 | 0.0 | 0.0 | 0.00 | 0.00 | 0.00 | 67 | 1007.6 |
| 20260504233029 | 66 | 64 | 0.0 | 3.0 | 0.00 | 0.00 | 0.00 | 66 | 1007.4 |
| 20260504231528 | 67 | 186 | 0.0 | 7.0 | 0.00 | 0.00 | 0.00 | 65 | 1007.3 |
| 20260504230029 | 68 | 67 | 0.0 | 2.0 | 0.00 | 0.00 | 0.00 | 63 | 1007.3 |
| 20260504224534 | 69 | 236 | 1.0 | 5.0 | 0.00 | 0.00 | 0.00 | 59 | 1007.5 |
| 20260504223028 | 69 | 135 | 0.0 | 4.0 | 0.00 | 0.00 | 0.00 | 59 | 1007.7 |
| 20260504221536 | 70 | 120 | 1.0 | 8.0 | 0.00 | 0.00 | 0.00 | 57 | 1007.6 |
| 20260504220027 | 70 | 223 | 0.0 | 5.0 | 0.00 | 0.00 | 0.00 | 57 | 1007.3 |
| 20260504214526 | 70 | 176 | 1.0 | 8.0 | 0.00 | 0.00 | 0.00 | 56 | 1007.2 |
| 20260504213035 | 71 | 150 | 0.0 | 1.0 | 0.00 | 0.00 | 0.00 | 57 | 1007.2 |
| 20260504211532 | 71 | 234 | 0.0 | 8.0 | 0.00 | 0.00 | 0.00 | 56 | 1007.4 |
| 20260504210025 | 71 | 86 | 0.0 | 3.0 | 0.00 | 0.00 | 0.00 | 57 | 1007.3 |
| 20260504204523 | 71 | 171 | 0.0 | 3.0 | 0.00 | 0.00 | 0.00 | 54 | 1007.3 |
| 20260504203022 | 71 | 101 | 0.0 | 3.0 | 0.00 | 0.00 | 0.00 | 54 | 1007.4 |
| 20260504201523 | 71 | 188 | 1.0 | 10.0 | 0.00 | 0.00 | 0.00 | 54 | 1007.5 |
| 20260504200021 | 71 | 92 | 1.0 | 5.0 | 0.00 | 0.00 | 0.00 | 53 | 1007.5 |
| 20260504194523 | 72 | 97 | 2.0 | 7.0 | 0.00 | 0.00 | 0.00 | 50 | 1007.6 |
| 20260504193019 | 72 | 146 | 0.0 | 5.0 | 0.00 | 0.00 | 0.00 | 53 | 1007.7 |
| 20260504191517 | 72 | 46 | 2.0 | 6.0 | 0.00 | 0.00 | 0.00 | 51 | 1008.0 |
| 20260504190019 | 71 | 163 | 1.0 | 13.0 | 0.00 | 0.00 | 0.00 | 54 | 1008.2 |
| 20260504184529 | 71 | 184 | 2.0 | 8.0 | 0.00 | 0.00 | 0.00 | 52 | 1008.4 |
| 20260504183012 | 71 | 186 | 1.0 | 8.0 | 0.00 | 0.00 | 0.00 | 54 | 1008.6 |
| 20260504181511 | 71 | 154 | 1.0 | 11.0 | 0.00 | 0.00 | 0.00 | 53 | 1008.7 |
| 20260504180010 | 71 | 73 | 2.0 | 8.0 | 0.00 | 0.00 | 0.00 | 53 | 1008.8 |
| 20260504174508 | 71 | 146 | 2.0 | 6.0 | 0.00 | 0.00 | 0.00 | 53 | 1008.8 |
| 20260504173013 | 70 | 306 | 2.0 | 6.0 | 0.00 | 0.00 | 0.00 | 53 | 1009.2 |
| 20260504171504 | 70 | 91 | 0.0 | 7.0 | 0.00 | 0.00 | 0.00 | 51 | 1009.3 |
| 20260504081538 | 47 | 76 | 0.0 | 0.0 | 0.00 | 0.00 | 0.00 | 76 | 1013.4 |
| 20260504044529 | 46 | 76 | 0.0 | 0.0 | 0.00 | 0.00 | 0.00 | 73 | 1014.5 |
| 20260504043022 | 46 | 76 | 0.0 | 0.0 | 0.00 | 0.00 | 0.00 | 72 | 1014.5 |
| 20260504041520 | 46 | 76 | 0.0 | 0.0 | 0.00 | 0.00 | 0.00 | 69 | 1014.4 |
| 20260504040018 | 46 | 76 | 0.0 | 0.0 | 0.00 | 0.00 | 0.00 | 67 | 1014.4 |
| 20260504034520 | 46 | 76 | 0.0 | 0.0 | 0.00 | 0.00 | 0.00 | 69 | 1014.5 |
| 20260504033017 | 47 | 76 | 0.0 | 0.0 | 0.00 | 0.00 | 0.00 | 68 | 1014.5 |
| 20260504031517 | 47 | 76 | 0.0 | 0.0 | 0.00 | 0.00 | 0.00 | 66 | 1014.5 |
| 20260504030019 | 47 | 76 | 0.0 | 0.0 | 0.00 | 0.00 | 0.00 | 65 | 1014.7 |
| 20260504024517 | 48 | 76 | 0.0 | 0.0 | 0.00 | 0.00 | 0.00 | 68 | 1014.7 |
| 20260504023016 | 48 | 76 | 0.0 | 0.0 | 0.00 | 0.00 | 0.00 | 68 | 1014.6 |
| 20260504021515 | 49 | 76 | 0.0 | 0.0 | 0.00 | 0.00 | 0.00 | 67 | 1014.6 |
| 20260504020019 | 49 | 76 | 0.0 | 0.0 | 0.00 | 0.00 | 0.00 | 67 | 1014.5 |
| 20260504014515 | 50 | 76 | 0.0 | 0.0 | 0.00 | 0.00 | 0.00 | 68 | 1014.6 |
| 20260504013023 | 50 | 76 | 0.0 | 0.0 | 0.00 | 0.00 | 0.00 | 66 | 1014.6 |
| 20260504011513 | 50 | 76 | 0.0 | 0.0 | 0.00 | 0.00 | 0.00 | 66 | 1014.4 |
| 20260504010013 | 51 | 76 | 0.0 | 0.0 | 0.00 | 0.00 | 0.00 | 66 | 1014.3 |
| 20260504004513 | 51 | 76 | 0.0 | 0.0 | 0.00 | 0.00 | 0.00 | 66 | 1014.3 |